This is the latest recevied weather packets stored in our database for station/object LU3GHF-13. If no packets are shown the sender has not sent any weather packets the latest 10 day(s).
| Time | Temp. | Humidity | Pressure | Rain* | Wind** | Luminosity | Snow |
|---|---|---|---|---|---|---|---|
| 1788646716 | 20.56° C | 47% | 1015.1 hPa | - | - | - | - |
| 1788646086 | 20.56° C | 47% | 1015 hPa | - | - | - | - |
| 1788645470 | 20.56° C | 47% | 1014.8 hPa | - | - | - | - |
| 1788644844 | 21.11° C | 47% | 1014.8 hPa | - | - | - | - |
| 1788644242 | 21.11° C | 47% | 1014.7 hPa | - | - | - | - |
| 1788643610 | 21.11° C | 46% | 1014.5 hPa | - | - | - | - |
| 1788642971 | 21.67° C | 45% | 1014.3 hPa | - | - | - | - |
| 1788642318 | 21.11° C | 45% | 1014.2 hPa | - | - | - | - |
| 1788641673 | 21.67° C | 44% | 1014.1 hPa | - | - | - | - |
| 1788641055 | 21.67° C | 43% | 1014 hPa | - | - | - | - |
| 1788640422 | 22.22° C | 42% | 1013.9 hPa | - | - | - | - |
| 1788639812 | 22.22° C | 42% | 1013.9 hPa | - | - | - | - |
| 1788639169 | 22.78° C | 40% | 1013.8 hPa | - | - | - | - |
| 1788638519 | 22.78° C | 39% | 1013.6 hPa | - | - | - | - |
| 1788637881 | 24.44° C | 38% | 1013.2 hPa | - | - | - | - |
| 1788637260 | 22.78° C | 40% | 1013.3 hPa | - | - | - | - |
| 1788636624 | 22.22° C | 39% | 1013.1 hPa | - | - | - | - |
| 1788636000 | 23.33° C | 38% | 1012.7 hPa | - | - | - | - |
| 1788635366 | 23.33° C | 37% | 1012.6 hPa | - | - | - | - |
| 1788634754 | 24.44° C | 38% | 1012.6 hPa | - | - | - | - |
| 1788634133 | 23.89° C | 38% | 1012.6 hPa | - | - | - | - |
| 1788633476 | 25° C | 37% | 1012.5 hPa | - | - | - | - |
| 1788632860 | 25° C | 40% | 1012.7 hPa | - | - | - | - |
| 1788632256 | 25° C | 39% | 1012.6 hPa | - | - | - | - |
| 1788631651 | 23.33° C | 40% | 1012.9 hPa | - | - | - | - |
* Rain since midnight (hover to see other rain measurements)
** Current wind speed in m/s (hover to see current wind gust speed)